Location: Holyhead Bay
(53.3667°N, 4.6667°W)
Time: 00:33:19
(UTC+00:00)

ADEOS Rocket - Pass Details

Date: 16 April 2021
Orbit: 859 x 1306 km, 98.7° (Epoch: 15 May)

Event Time Altitude Azimuth Distance (km) Brightness Sun altitude
Exits shadow 02:57:09 - 168° (SSE) 2,850 5.1 -18.1°
Reaches altitude 10° 02:57:20 10° 168° (SSE) 2,778 5.0 -18.1°
Maximum altitude 03:03:39 79° 256° (WSW) 1,113 3.2 -17.4°
Drops below altitude 10° 03:10:46 10° 343° (NNW) 3,112 6.0 -16.7°
Sets 03:13:31 0° 345° (NNW) 4,136 6.7 -16.4°
